This is the latest recevied weather packets stored in our database for station/object K4AGR-13. If no packets are shown the sender has not sent any weather packets the latest 10 day(s).
| Time | Temp. | Humidity | Pressure | Rain* | Wind** | Luminosity | Snow |
|---|---|---|---|---|---|---|---|
| 1777419773 | 25° C | 62% | 1017.2 hPa | 0 mm | - | 27 W/m² | - |
| 1777419470 | 25.56° C | 61% | 1016.9 hPa | 0 mm | - | 36 W/m² | - |
| 1777419169 | 25.56° C | 61% | 1016.9 hPa | 0 mm | - | 43 W/m² | - |
| 1777418864 | 25.56° C | 60% | 1017.2 hPa | 0 mm | - | 51 W/m² | - |
| 1777418561 | 25.56° C | 60% | 1017.1 hPa | 0 mm | - | 57 W/m² | - |
| 1777418257 | 25.56° C | 60% | 1017.4 hPa | 0 mm | - | 60 W/m² | - |
| 1777417953 | 25.56° C | 59% | 1017.4 hPa | 0 mm | - | 59 W/m² | - |
| 1777417649 | 25.56° C | 59% | 1017.4 hPa | 0 mm | - | 59 W/m² | - |
| 1777417344 | 25.56° C | 58% | 1017.7 hPa | 0 mm | - | 62 W/m² | - |
| 1777417041 | 26.11° C | 58% | 1017.6 hPa | 0 mm | - | 68 W/m² | - |
| 1777416737 | 26.11° C | 58% | 1017.7 hPa | 0 mm | - | 81 W/m² | - |
| 1777416432 | 26.67° C | 57% | 1017.6 hPa | 0 mm | - | 74 W/m² | - |
| 1777416128 | 26.67° C | 56% | 1017.5 hPa | 0 mm | - | 70 W/m² | - |
| 1777415822 | 26.67° C | 57% | 1017.7 hPa | 0 mm | - | 65 W/m² | - |
| 1777415518 | 26.67° C | 56% | 1017.6 hPa | 0 mm | - | 60 W/m² | - |
| 1777415214 | 26.67° C | 56% | 1017.6 hPa | 0 mm | - | 59 W/m² | - |
| 1777414910 | 26.67° C | 55% | 1017.6 hPa | 0 mm | - | 67 W/m² | - |
| 1777414609 | 26.67° C | 55% | 1017.8 hPa | 0 mm | - | 65 W/m² | - |
| 1777414304 | 26.67° C | 55% | 1017.8 hPa | 0 mm | - | 59 W/m² | - |
| 1777413999 | 26.67° C | 55% | 1017.7 hPa | 0 mm | - | 62 W/m² | - |
| 1777413694 | 26.67° C | 55% | 1018 hPa | 0 mm | - | 62 W/m² | - |
| 1777413390 | 26.67° C | 55% | 1018.1 hPa | 0 mm | - | 74 W/m² | - |
| 1777413087 | 26.67° C | 54% | 1018.1 hPa | 0 mm | - | 88 W/m² | - |
| 1777412787 | 26.67° C | 54% | 1018.1 hPa | 0 mm | - | 100 W/m² | - |
| 1777412481 | 26.67° C | 54% | 1018.1 hPa | 0 mm | - | 107 W/m² | - |
* Rain latest hour (hover to see other rain measurements)
** Current wind speed in m/s (hover to see current wind gust speed)